DW5735 Weather Reports


Display with metric or nautical units.
time (UTC)temp
F
wind
direction
speed
MPH
gust
MPH
rain 1hr
in
rain 24hr
in
rain mn
in
humidity
%
barometer
mb
20260906231346 73 228 0.0 0.0 0.00 0.00 0.00 52 1012.2
20260906230836 72 233 0.0 0.0 0.00 0.00 0.00 55 1012.2
20260906230340 72 246 0.0 0.0 0.00 0.00 0.00 55 1012.2
20260906230119 71 241 0.0 0.0 0.00 0.00 0.00 57 1011.4
20260906225823 72 239 0.0 0.0 0.00 0.00 0.00 57 1012.2
20260906225323 72 245 0.0 1.0 0.00 0.00 0.00 58 1012.3
20260906224833 72 221 0.0 1.0 0.00 0.00 0.00 56 1012.4
20260906224614 71 233 0.0 1.0 0.00 0.00 0.00 56 1011.7
20260906224334 72 239 0.0 1.0 0.00 0.00 0.00 58 1012.5
20260906223822 71 236 0.0 0.0 0.00 0.00 0.00 56 1012.5
20260906223319 71 233 0.0 1.0 0.00 0.00 0.00 53 1012.5
20260906223014 70 246 0.0 1.0 0.00 0.00 0.00 54 1011.8
20260906222832 70 242 0.0 1.0 0.00 0.00 0.00 55 1012.5
20260906222333 70 236 0.0 0.0 0.00 0.00 0.00 60 1012.5
20260906221839 70 226 0.0 0.0 0.00 0.00 0.00 61 1012.6
20260906221606 69 238 0.0 0.0 0.00 0.00 0.00 63 1011.9
20260906221355 70 221 0.0 0.0 0.00 0.00 0.00 63 1012.7
20260906220843 70 241 0.0 0.0 0.00 0.00 0.00 64 1012.5
20260906220330 70 239 0.0 1.0 0.00 0.00 0.00 63 1012.6
20260906220113 69 242 0.0 1.0 0.00 0.00 0.00 63 1011.9
20260906215852 70 233 0.0 1.0 0.00 0.00 0.00 62 1012.6
20260906215336 69 255 0.0 0.0 0.00 0.00 0.00 60 1012.7
20260906214850 69 232 0.0 0.0 0.00 0.00 0.00 64 1012.8
20260906214606 68 222 0.0 0.0 0.00 0.00 0.00 63 1012.1
20260906214337 69 246 0.0 0.0 0.00 0.00 0.00 64 1012.8
20260906213319 68 239 0.0 1.0 0.00 0.00 0.00 64 1012.9
20260906213112 68 229 0.0 1.0 0.00 0.00 0.00 66 1012.2
20260906212857 68 243 0.0 1.0 0.00 0.00 0.00 62 1013.0
20260906212327 68 239 0.0 1.0 0.00 0.00 0.00 62 1013.2
20260906211830 68 243 0.0 1.0 0.00 0.00 0.00 62 1013.2
20260906211602 68 240 0.0 1.0 0.00 0.00 0.00 64 1012.6
20260906211333 68 221 0.0 1.0 0.00 0.00 0.00 64 1013.3
20260906210819 68 211 0.0 6.0 0.00 0.00 0.00 62 1013.4
20260906210336 68 239 3.0 7.0 0.00 0.00 0.00 61 1013.5
20260906205848 68 239 3.0 7.0 0.00 0.00 0.00 61 1013.5
20260906205323 68 236 2.0 7.0 0.00 0.00 0.00 62 1013.8
20260906204821 67 236 5.0 7.0 0.00 0.00 0.00 61 1013.8
20260906204610 67 222 0.0 8.0 0.00 0.00 0.00 62 1013.1
20260906203839 67 245 3.0 6.0 0.00 0.00 0.00 63 1014.0
20260906203319 67 246 5.0 6.0 0.00 0.00 0.00 62 1014.0
20260906203108 67 246 3.0 6.0 0.00 0.00 0.00 61 1013.4
20260906202838 67 243 0.0 1.0 0.00 0.00 0.00 64 1014.2
20260906202350 67 245 0.0 1.0 0.00 0.00 0.00 62 1014.1
20260906201831 67 195 0.0 1.0 0.00 0.00 0.00 64 1014.4
20260906201609 66 208 0.0 1.0 0.00 0.00 0.00 64 1013.6
20260906201335 66 236 0.0 1.0 0.00 0.00 0.00 63 1014.4
20260906200825 66 241 0.0 1.0 0.00 0.00 0.00 64 1014.5
20260906200334 66 242 0.0 0.0 0.00 0.00 0.00 65 1014.6
20260906200148 66 205 0.0 0.0 0.00 0.00 0.00 63 1013.9
20260906195836 66 225 0.0 0.0 0.00 0.00 0.00 65 1014.6
20260906195341 66 239 0.0 0.0 0.00 0.00 0.00 65 1014.8
20260906194824 66 247 0.0 0.0 0.00 0.00 0.00 66 1014.8
20260906194605 65 228 0.0 0.0 0.00 0.00 0.00 66 1014.3
20260906194336 66 246 0.0 0.0 0.00 0.00 0.00 66 1014.9
20260906193839 65 231 0.0 0.0 0.00 0.00 0.00 68 1015.1
20260906193322 65 245 0.0 0.0 0.00 0.00 0.00 68 1015.3
20260906193105 64 224 0.0 0.0 0.00 0.00 0.00 68 1014.6
20260906192819 65 232 0.0 0.0 0.00 0.00 0.00 67 1015.2
20260906192341 65 250 0.0 0.0 0.00 0.00 0.00 68 1015.3
20260906191846 65 231 0.0 0.0 0.00 0.00 0.00 67 1015.3
20260906191609 64 206 0.0 0.0 0.00 0.00 0.00 69 1014.8
20260906191321 64 246 0.0 0.0 0.00 0.00 0.00 69 1015.4
20260906190845 64 231 0.0 0.0 0.00 0.00 0.00 69 1015.5
20260906190323 64 239 0.0 0.0 0.00 0.00 0.00 68 1015.6
20260906190104 64 215 0.0 0.0 0.00 0.00 0.00 66 1015.0
20260906185824 64 243 0.0 0.0 0.00 0.00 0.00 65 1015.7
20260906185330 64 240 0.0 0.0 0.00 0.00 0.00 65 1015.8
20260906184827 64 194 0.0 0.0 0.00 0.00 0.00 67 1015.8
20260906184605 64 241 0.0 0.0 0.00 0.00 0.00 65 1015.2
20260906184329 64 337 0.0 0.0 0.00 0.00 0.00 66 1015.9
20260906183833 63 330 0.0 0.0 0.00 0.00 0.00 66 1015.9
20260906183333 63 328 0.0 0.0 0.00 0.00 0.00 67 1016.0
20260906183114 62 321 0.0 0.0 0.00 0.00 0.00 67 1015.4
20260906182832 63 311 0.0 0.0 0.00 0.00 0.00 66 1016.1
20260906182319 63 271 0.0 0.0 0.00 0.00 0.00 68 1016.2
20260906181902 62 309 0.0 0.0 0.00 0.00 0.00 68 1016.1
20260906181620 62 327 0.0 0.0 0.00 0.00 0.00 68 1015.6
20260906181345 62 335 0.0 0.0 0.00 0.00 0.00 68 1016.3
20260906180825 62 36 0.0 0.0 0.00 0.00 0.00 67 1016.3
20260906180327 62 354 0.0 0.0 0.00 0.00 0.00 68 1016.4
20260906180008 61 318 0.0 0.0 0.00 0.00 0.00 68 1015.8
20260906175825 61 43 0.0 0.0 0.00 0.00 0.00 69 1016.4
20260906175335 61 340 0.0 0.0 0.00 0.00 0.00 70 1016.5
20260906174821 61 23 0.0 0.0 0.00 0.00 0.00 70 1016.5
20260906174338 60 342 0.0 0.0 0.00 0.00 0.00 70 1016.6
20260906173839 60 335 0.0 0.0 0.00 0.00 0.00 71 1016.7
20260906173354 60 343 0.0 0.0 0.00 0.00 0.00 71 1016.8
20260906173056 59 346 0.0 0.0 0.00 0.00 0.00 73 1016.3
20260906172833 60 11 0.0 3.0 0.00 0.00 0.00 72 1016.9
20260906172334 60 350 0.0 3.0 0.00 0.00 0.00 72 1016.9
20260906171900 59 328 0.0 0.0 0.00 0.00 0.00 72 1017.0
20260906171559 59 325 0.0 0.0 0.00 0.00 0.00 72 1016.5
20260906171320 59 356 0.0 0.0 0.00 0.00 0.00 72 1017.1
20260906170823 59 27 0.0 0.0 0.00 0.00 0.00 73 1017.3
20260906170342 59 25 0.0 6.0 0.00 0.00 0.00 72 1017.3
20260906170107 58 72 0.0 6.0 0.00 0.00 0.00 72 1016.7
20260906165845 59 34 1.0 6.0 0.00 0.00 0.00 73 1017.3
20260906165333 59 36 0.0 0.0 0.00 0.00 0.00 74 1017.4
20260906164819 59 34 0.0 0.0 0.00 0.00 0.00 73 1017.5
20260906164513 58 25 0.0 0.0 0.00 0.00 0.00 72 1017.0
20260906164337 59 27 0.0 0.0 0.00 0.00 0.00 72 1017.5
20260906163854 58 86 0.0 0.0 0.00 0.00 0.00 75 1017.6
20260906163330 57 27 0.0 0.0 0.00 0.00 0.00 74 1017.7
20260906163110 57 23 0.0 0.0 0.00 0.00 0.00 74 1017.3
20260906162859 57 51 0.0 0.0 0.00 0.00 0.00 75 1017.8
20260906162325 57 53 0.0 0.0 0.00 0.00 0.00 75 1017.9
20260906161832 57 22 0.0 0.0 0.00 0.00 0.00 75 1017.9
20260906161507 56 46 0.0 0.0 0.00 0.00 0.00 75 1017.5
20260906161329 57 18 0.0 0.0 0.00 0.00 0.00 75 1018.0
20260906160833 56 40 0.0 1.0 0.00 0.00 0.00 77 1018.0
20260906160323 56 30 0.0 1.0 0.00 0.00 0.00 76 1018.1
20260906160105 56 25 0.0 1.0 0.00 0.00 0.00 77 1017.6
20260906155838 56 21 0.0 0.0 0.00 0.00 0.00 78 1018.1
20260906155329 56 27 0.0 0.0 0.00 0.00 0.00 79 1018.1
20260906154819 55 26 0.0 0.0 0.00 0.00 0.00 79 1018.1
20260906154606 55 38 0.0 0.0 0.00 0.00 0.00 79 1017.6
20260906154319 55 26 0.0 0.0 0.00 0.00 0.00 79 1018.2
20260906153831 55 27 0.0 0.0 0.00 0.00 0.00 79 1018.2
20260906153337 55 110 0.0 0.0 0.00 0.00 0.00 80 1018.2
20260906152820 55 91 0.0 0.0 0.00 0.00 0.00 81 1018.3
20260906152331 54 65 0.0 0.0 0.00 0.00 0.00 81 1018.3
20260906151832 54 94 0.0 0.0 0.00 0.00 0.00 81 1018.3
20260906151601 54 31 0.0 0.0 0.00 0.00 0.00 81 1017.8
20260906151338 54 72 0.0 0.0 0.00 0.00 0.00 82 1018.4
20260906150830 54 29 0.0 0.0 0.00 0.00 0.00 81 1018.5
20260906150328 55 46 0.0 0.0 0.00 0.00 0.00 81 1018.5
20260906150108 54 56 0.0 0.0 0.00 0.00 0.00 81 1017.9
20260906145859 54 63 0.0 0.0 0.00 0.00 0.00 81 1018.6
20260906145331 55 81 0.0 0.0 0.00 0.00 0.00 80 1018.5
20260906144842 54 98 0.0 0.0 0.00 0.00 0.00 83 1018.5
20260906144605 53 53 0.0 0.0 0.00 0.00 0.00 83 1018.0
20260906144334 53 56 0.0 0.0 0.00 0.00 0.00 84 1018.5
20260906143836 53 85 0.0 0.0 0.00 0.00 0.00 85 1018.5
20260906143329 53 50 0.0 0.0 0.00 0.00 0.00 85 1018.5
20260906143105 52 49 0.0 0.0 0.00 0.00 0.00 86 1017.9
20260906142852 52 56 0.0 0.0 0.00 0.00 0.00 86 1018.5
20260906142325 52 61 0.0 0.0 0.00 0.00 0.00 86 1018.4
20260906141826 52 25 0.0 0.0 0.00 0.00 0.00 86 1018.4
20260906141607 51 75 0.0 0.0 0.00 0.00 0.00 86 1017.9
20260906141338 51 37 0.0 0.0 0.00 0.00 0.00 87 1018.4
20260906140825 51 71 0.0 0.0 0.00 0.00 0.00 88 1018.4
20260906140331 50 89 0.0 0.0 0.00 0.00 0.00 88 1018.3
20260906135821 50 91 0.0 0.0 0.00 0.00 0.00 88 1018.2
20260906135335 50 91 0.0 0.0 0.00 0.00 0.00 88 1018.2
20260906134829 50 75 0.0 0.0 0.00 0.00 0.00 88 1018.2
20260906134607 50 72 0.0 0.0 0.00 0.00 0.00 88 1017.6
20260906134336 50 86 0.0 0.0 0.00 0.00 0.00 88 1018.1
20260906133836 50 90 0.0 0.0 0.00 0.00 0.00 88 1018.1
20260906133337 50 79 0.0 0.0 0.00 0.00 0.00 87 1018.0
20260906133102 50 89 0.0 0.0 0.00 0.00 0.00 87 1017.5
20260906132839 50 80 0.0 0.0 0.00 0.00 0.00 87 1018.0
20260906132333 51 85 0.0 0.0 0.00 0.00 0.00 86 1017.9
20260906131819 51 94 0.0 0.0 0.00 0.00 0.00 86 1018.0
20260906131328 51 83 0.0 0.0 0.00 0.00 0.00 86 1018.0
20260906130823 51 76 0.0 0.0 0.00 0.00 0.00 86 1017.9
20260906130339 51 68 0.0 0.0 0.00 0.00 0.00 86 1017.9
20260906130105 50 68 0.0 0.0 0.00 0.00 0.00 86 1017.4
20260906125837 51 65 0.0 0.0 0.00 0.00 0.00 85 1017.9
20260906125319 51 77 0.0 0.0 0.00 0.00 0.00 85 1018.0
20260906124831 51 70 0.0 0.0 0.00 0.00 0.00 85 1018.0
20260906124626 51 70 0.0 0.0 0.00 0.00 0.00 85 1017.6
20260906124329 51 70 0.0 0.0 0.00 0.00 0.00 85 1018.1
20260906123835 52 66 0.0 0.0 0.00 0.00 0.00 84 1018.1
20260906123330 52 66 0.0 0.0 0.00 0.00 0.00 84 1018.2
20260906123124 52 65 0.0 0.0 0.00 0.00 0.00 84 1017.7
20260906122823 52 65 0.0 0.0 0.00 0.00 0.00 84 1018.2
20260906122331 52 46 0.0 0.0 0.00 0.00 0.00 84 1018.2
20260906121858 52 51 0.0 0.0 0.00 0.00 0.00 84 1018.3
20260906121530 52 74 0.0 0.0 0.00 0.00 0.00 83 1017.7
20260906121340 53 98 0.0 0.0 0.00 0.00 0.00 83 1018.3
20260906120828 53 64 0.0 0.0 0.00 0.00 0.00 83 1018.4
20260906120332 53 77 0.0 0.0 0.00 0.00 0.00 83 1018.4
20260906120132 53 91 0.0 0.0 0.00 0.00 0.00 83 1017.8
20260906115841 53 72 0.0 0.0 0.00 0.00 0.00 83 1018.4
20260906115328 54 62 0.0 0.0 0.00 0.00 0.00 83 1018.4
20260906114851 54 37 0.0 0.0 0.00 0.00 0.00 82 1018.3
20260906114611 53 37 0.0 0.0 0.00 0.00 0.00 83 1017.8
20260906114358 54 63 0.0 0.0 0.00 0.00 0.00 82 1018.4
20260906113831 54 99 0.0 0.0 0.00 0.00 0.00 82 1018.3
20260906113325 54 82 0.0 0.0 0.00 0.00 0.00 82 1018.3
20260906113100 53 119 0.0 0.0 0.00 0.00 0.00 82 1017.8
20260906112836 54 105 0.0 0.0 0.00 0.00 0.00 82 1018.4
20260906112331 54 82 0.0 0.0 0.00 0.00 0.00 82 1018.4
20260906111834 54 84 0.0 0.0 0.00 0.00 0.00 82 1018.3
20260906111604 53 75 0.0 0.0 0.00 0.00 0.00 82 1017.8
20260906111318 54 54 0.0 0.0 0.00 0.00 0.00 82 1018.4
20260906110907 54 73 0.0 0.0 0.00 0.00 0.00 81 1018.4
20260906110401 54 88 0.0 0.0 0.00 0.00 0.00 81 1018.3
20260906110105 53 95 0.0 0.0 0.00 0.00 0.00 81 1017.8
20260906105852 54 96 0.0 0.0 0.00 0.00 0.00 81 1018.4
20260906105331 54 98 0.0 0.0 0.00 0.00 0.00 81 1018.3
20260906104828 54 94 0.0 0.0 0.00 0.00 0.00 81 1018.2
20260906104510 53 93 0.0 0.0 0.00 0.00 0.00 81 1017.7
20260906104330 54 89 0.0 0.0 0.00 0.00 0.00 81 1018.2
20260906103832 54 56 0.0 0.0 0.00 0.00 0.00 80 1018.1
20260906103323 55 76 0.0 0.0 0.00 0.00 0.00 80 1018.1
20260906103105 54 76 0.0 0.0 0.00 0.00 0.00 80 1017.6
20260906102858 55 70 0.0 0.0 0.00 0.00 0.00 80 1018.1
20260906102339 55 66 0.0 0.0 0.00 0.00 0.00 80 1018.0
20260906101828 55 51 0.0 0.0 0.00 0.00 0.00 79 1018.1
20260906101604 55 46 0.0 0.0 0.00 0.00 0.00 79 1017.6
20260906101342 56 49 0.0 0.0 0.00 0.00 0.00 80 1018.1
20260906100821 56 103 0.0 0.0 0.00 0.00 0.00 80 1018.2
20260906100321 56 100 0.0 0.0 0.00 0.00 0.00 79 1018.1
20260906095831 56 74 0.0 0.0 0.00 0.00 0.00 78 1018.1
20260906095338 56 75 0.0 0.0 0.00 0.00 0.00 77 1018.0
20260906094827 56 76 0.0 0.0 0.00 0.00 0.00 77 1018.0
20260906094502 56 76 0.0 0.0 0.00 0.00 0.00 76 1017.5
20260906094326 56 76 0.0 0.0 0.00 0.00 0.00 76 1018.1
20260906093827 56 77 0.0 0.0 0.00 0.00 0.00 76 1018.1
20260906093332 57 76 0.0 0.0 0.00 0.00 0.00 76 1018.1
20260906093001 56 77 0.0 0.0 0.00 0.00 0.00 75 1017.5
20260906092822 57 77 0.0 0.0 0.00 0.00 0.00 75 1018.1
20260906092336 57 86 0.0 0.0 0.00 0.00 0.00 75 1018.1
20260906091600 56 36 0.0 0.0 0.00 0.00 0.00 76 1017.6
20260906091337 57 37 0.0 0.0 0.00 0.00 0.00 76 1018.1
20260906090840 57 36 0.0 0.0 0.00 0.00 0.00 76 1018.2
20260906090356 58 60 0.0 0.0 0.00 0.00 0.00 76 1018.2
20260906090109 58 61 0.0 0.0 0.00 0.00 0.00 76 1017.7
20260906085833 58 95 0.0 0.0 0.00 0.00 0.00 77 1018.2
20260906085352 58 53 0.0 0.0 0.00 0.00 0.00 76 1018.1
20260906084832 57 30 0.0 0.0 0.00 0.00 0.00 75 1018.3
20260906084607 57 87 0.0 0.0 0.00 0.00 0.00 74 1017.8
20260906084339 57 89 0.0 0.0 0.00 0.00 0.00 74 1018.3
20260906083826 57 63 0.0 0.0 0.00 0.00 0.00 74 1018.3
20260906083325 58 105 0.0 0.0 0.00 0.00 0.00 73 1018.3
20260906083107 57 103 0.0 0.0 0.00 0.00 0.00 73 1017.8
20260906082821 58 91 0.0 0.0 0.00 0.00 0.00 73 1018.4
20260906082335 58 68 0.0 0.0 0.00 0.00 0.00 71 1018.4
20260906081821 58 56 0.0 0.0 0.00 0.00 0.00 71 1018.4
20260906081530 58 71 0.0 0.0 0.00 0.00 0.00 71 1017.8
20260906081339 58 71 0.0 0.0 0.00 0.00 0.00 71 1018.4
20260906080834 58 70 0.0 0.0 0.00 0.00 0.00 71 1018.5
20260906080356 58 70 0.0 0.0 0.00 0.00 0.00 72 1018.4
20260906080115 57 71 0.0 0.0 0.00 0.00 0.00 72 1017.9
20260906075837 58 82 0.0 0.0 0.00 0.00 0.00 73 1018.4
20260906075335 58 86 0.0 0.0 0.00 0.00 0.00 73 1018.5
20260906074826 58 91 0.0 0.0 0.00 0.00 0.00 73 1018.4
20260906074623 58 91 0.0 0.0 0.00 0.00 0.00 73 1017.9
20260906074335 58 90 0.0 0.0 0.00 0.00 0.00 73 1018.5
20260906073833 59 37 0.0 0.0 0.00 0.00 0.00 72 1018.5
20260906073320 59 49 0.0 0.0 0.00 0.00 0.00 73 1018.6
20260906073102 58 86 0.0 0.0 0.00 0.00 0.00 73 1018.1
20260906072838 59 86 0.0 0.0 0.00 0.00 0.00 71 1018.6
20260906072342 59 62 0.0 0.0 0.00 0.00 0.00 71 1018.6
20260906071828 59 65 0.0 0.0 0.00 0.00 0.00 71 1018.5
20260906071604 59 86 0.0 0.0 0.00 0.00 0.00 71 1017.9
20260906071358 59 97 0.0 0.0 0.00 0.00 0.00 70 1018.5
20260906070821 59 85 0.0 0.0 0.00 0.00 0.00 70 1018.5
20260906070318 59 44 0.0 0.0 0.00 0.00 0.00 71 1018.5
20260906070119 58 44 0.0 0.0 0.00 0.00 0.00 71 1017.9
20260906065839 59 44 0.0 0.0 0.00 0.00 0.00 70 1018.5
20260906065331 59 44 0.0 0.0 0.00 0.00 0.00 70 1018.5
20260906064833 60 44 0.0 0.0 0.00 0.00 0.00 69 1018.4
20260906064600 59 42 0.0 0.0 0.00 0.00 0.00 69 1017.9
20260906064319 60 42 0.0 0.0 0.00 0.00 0.00 70 1018.5
20260906063910 60 95 0.0 0.0 0.00 0.00 0.00 68 1018.5
20260906063331 60 100 0.0 0.0 0.00 0.00 0.00 67 1018.5
20260906063113 60 91 0.0 0.0 0.00 0.00 0.00 67 1018.0
20260906062848 60 97 0.0 0.0 0.00 0.00 0.00 67 1018.5
20260906062346 60 108 0.0 0.0 0.00 0.00 0.00 66 1018.5
20260906061823 60 101 0.0 0.0 0.00 0.00 0.00 66 1018.4
20260906061610 60 101 0.0 0.0 0.00 0.00 0.00 67 1017.8
20260906061321 60 62 0.0 1.0 0.00 0.00 0.00 67 1018.3
20260906060825 60 89 0.0 1.0 0.00 0.00 0.00 68 1018.4
20260906060322 60 101 0.0 0.0 0.00 0.00 0.00 68 1018.3
20260906060114 59 101 0.0 0.0 0.00 0.00 0.00 68 1017.8
20260906055820 59 86 0.0 0.0 0.00 0.00 0.00 68 1018.3
20260906054845 60 43 0.0 0.0 0.00 0.00 0.00 68 1018.4
20260906054606 59 43 0.0 0.0 0.00 0.00 0.00 67 1017.8
20260906054325 60 43 0.0 0.0 0.00 0.00 0.00 67 1018.4
20260906053821 59 50 0.0 0.0 0.00 0.00 0.00 69 1018.4
20260906053347 59 79 0.0 0.0 0.00 0.00 0.00 68 1018.4
20260906052839 59 82 0.0 0.0 0.00 0.00 0.00 68 1018.4
20260906052341 59 76 0.0 0.0 0.00 0.00 0.00 68 1018.4
20260906051606 59 64 0.0 0.0 0.00 0.00 0.00 68 1017.8
20260906051329 60 63 0.0 0.0 0.00 0.00 0.00 67 1018.4
20260906050819 60 93 0.0 0.0 0.00 0.00 0.00 68 1018.3
20260906050338 60 97 0.0 0.0 0.00 0.00 0.00 69 1018.4
20260906050124 59 82 0.0 0.0 0.00 0.00 0.00 70 1017.8
20260906045827 60 83 0.0 0.0 0.00 0.00 0.00 71 1018.4
20260906045329 60 91 0.0 0.0 0.00 0.00 0.00 71 1018.3
20260906044857 60 162 0.0 0.0 0.00 0.00 0.00 72 1018.2
20260906044614 59 160 0.0 0.0 0.00 0.00 0.00 72 1017.7
20260906044316 60 113 0.0 0.0 0.00 0.00 0.00 72 1018.2
20260906043816 59 111 0.0 0.0 0.00 0.00 0.00 71 1018.2
20260906043332 59 208 0.0 0.0 0.00 0.00 0.00 72 1018.1
20260906043147 59 208 0.0 0.0 0.00 0.00 0.00 72 1017.6
20260906042822 59 208 0.0 0.0 0.00 0.00 0.00 71 1018.1
20260906042332 59 145 0.0 0.0 0.00 0.00 0.00 71 1018.0
20260906041817 59 146 0.0 0.0 0.00 0.00 0.00 72 1018.0
20260906041556 59 83 0.0 0.0 0.00 0.00 0.00 73 1017.4
20260906041317 59 84 0.0 0.0 0.00 0.00 0.00 73 1017.9
20260906040835 60 87 0.0 0.0 0.00 0.00 0.00 73 1017.9
20260906040332 60 87 0.0 0.0 0.00 0.00 0.00 74 1017.8
20260906040115 59 87 0.0 0.0 0.00 0.00 0.00 74 1017.2
20260906035836 60 88 0.0 0.0 0.00 0.00 0.00 74 1017.8
20260906035319 60 34 0.0 0.0 0.00 0.00 0.00 75 1017.7
20260906034816 60 82 0.0 0.0 0.00 0.00 0.00 73 1017.6
20260906034507 60 103 0.0 0.0 0.00 0.00 0.00 70 1017.0
20260906034330 60 91 0.0 0.0 0.00 0.00 0.00 70 1017.6
20260906033837 61 68 0.0 0.0 0.00 0.00 0.00 72 1017.6
20260906033336 61 113 0.0 0.0 0.00 0.00 0.00 70 1017.6
20260906033120 61 113 0.0 0.0 0.00 0.00 0.00 69 1017.0
20260906032850 61 113 0.0 0.0 0.00 0.00 0.00 68 1017.5
20260906032338 61 90 0.0 0.0 0.00 0.00 0.00 69 1017.4
20260906031851 61 90 0.0 0.0 0.00 0.00 0.00 70 1017.4
20260906031348 62 82 0.0 0.0 0.00 0.00 0.00 73 1017.4
20260906030838 62 21 0.0 0.0 0.00 0.00 0.00 68 1017.4
20260906030337 62 95 0.0 0.0 0.00 0.00 0.00 68 1017.3
20260906030113 62 95 0.0 0.0 0.00 0.00 0.00 67 1016.7
20260906025822 62 94 0.0 0.0 0.00 0.00 0.00 67 1017.1
20260906025337 63 94 0.0 0.0 0.00 0.00 0.00 67 1017.1
20260906024857 63 91 0.0 0.0 0.00 0.00 0.00 67 1017.1
20260906024507 63 92 0.0 0.0 0.00 0.00 0.00 67 1016.6
20260906024329 63 91 0.0 0.0 0.00 0.00 0.00 67 1017.2
20260906023837 64 122 0.0 0.0 0.00 0.00 0.00 65 1017.0
20260906023322 64 122 0.0 0.0 0.00 0.00 0.00 64 1017.0
20260906023059 64 127 0.0 0.0 0.00 0.00 0.00 64 1016.4
20260906022831 65 128 0.0 0.0 0.00 0.00 0.00 63 1017.1
20260906022331 66 129 0.0 0.0 0.00 0.00 0.00 61 1017.1
20260906021824 66 123 0.0 0.0 0.00 0.00 0.00 59 1017.2
20260906021611 66 138 0.0 0.0 0.00 0.00 0.00 58 1016.5
20260906021350 67 156 0.0 0.0 0.00 0.00 0.00 58 1017.0
20260906020819 68 158 0.0 0.0 0.00 0.00 0.00 56 1017.0
20260906020330 68 163 0.0 0.0 0.00 0.00 0.00 56 1016.9
20260906020104 68 159 0.0 0.0 0.00 0.00 0.00 56 1016.4
20260906015821 68 159 0.0 0.0 0.00 0.00 0.00 56 1016.8
20260906015354 68 103 0.0 0.0 0.00 0.00 0.00 55 1016.8
20260906014502 67 32 0.0 0.0 0.00 0.00 0.00 56 1016.2
20260906014319 68 32 0.0 0.0 0.00 0.00 0.00 55 1016.8
20260906013830 68 37 0.0 0.0 0.00 0.00 0.00 59 1016.7
20260906013331 68 34 0.0 0.0 0.00 0.00 0.00 58 1016.8
20260906013011 67 37 0.0 0.0 0.00 0.00 0.00 60 1016.2
20260906012826 68 42 0.0 0.0 0.00 0.00 0.00 61 1016.7
20260906012319 68 26 0.0 0.0 0.00 0.00 0.00 59 1016.6
20260906011858 68 22 0.0 0.0 0.00 0.00 0.00 56 1016.6
20260906011614 67 23 0.0 0.0 0.00 0.00 0.00 58 1016.0
20260906011322 68 20 0.0 0.0 0.00 0.00 0.00 56 1016.6
20260906010825 69 27 0.0 0.0 0.00 0.00 0.00 57 1016.6
20260906010338 69 335 0.0 0.0 0.00 0.00 0.00 54 1016.6
20260906005851 69 276 0.0 0.0 0.00 0.00 0.00 55 1016.6
20260906005335 68 277 0.0 0.0 0.00 0.00 0.00 58 1016.7
20260906004830 68 276 0.0 0.0 0.00 0.00 0.00 58 1016.7
20260906004516 67 273 0.0 0.0 0.00 0.00 0.00 58 1016.1
20260906004335 68 257 0.0 0.0 0.00 0.00 0.00 58 1016.6
20260906003831 67 257 0.0 0.0 0.00 0.00 0.00 59 1016.7
20260906003317 67 253 0.0 0.0 0.00 0.00 0.00 59 1016.6
20260906003105 66 252 0.0 0.0 0.00 0.00 0.00 59 1016.0
20260906002859 67 246 0.0 0.0 0.00 0.00 0.00 59 1016.6
20260906002322 67 262 0.0 0.0 0.00 0.00 0.00 58 1016.4
20260906001840 67 249 0.0 0.0 0.00 0.00 0.00 58 1016.5
20260906001615 66 245 0.0 0.0 0.00 0.00 0.00 58 1015.9
20260906001355 67 246 0.0 0.0 0.00 0.00 0.00 59 1016.5
20260906000857 67 242 0.0 0.0 0.00 0.00 0.00 58 1016.6
20260906000333 67 240 0.0 0.0 0.00 0.00 0.00 60 1016.7
20260906000104 66 231 0.0 0.0 0.00 0.00 0.00 61 1016.1
20260905235821 67 232 0.0 0.0 0.00 0.00 0.00 59 1016.6
20260905235343 67 231 0.0 5.0 0.00 0.00 0.00 59 1016.7
20260905234845 67 239 0.0 7.0 0.00 0.00 0.00 61 1016.8
20260905234515 67 239 2.0 7.0 0.00 0.00 0.00 62 1016.3
20260905234337 68 222 3.0 7.0 0.00 0.00 0.00 63 1016.8
20260905233828 68 232 2.0 6.0 0.00 0.00 0.00 61 1016.8
20260905233319 68 224 0.0 0.0 0.00 0.00 0.00 57 1016.8
20260905233100 68 238 0.0 0.0 0.00 0.00 0.00 58 1016.3
20260905232819 68 236 0.0 0.0 0.00 0.00 0.00 58 1016.8
20260905232335 69 221 0.0 0.0 0.00 0.00 0.00 57 1016.7
20260905231849 69 249 0.0 0.0 0.00 0.00 0.00 57 1016.7